Regional Weather Roundup
Issued by NWS

Home | Current Version | Previous Version | Graphics & Text | Print | Product List | Glossary On
Versions: 1 2 3 4 5 6 7 8 9 10 11 12 13 14 15 16 17 18 19 20 21 22 23 24 25 26 27 28 29 30 31 32 33 34 35 36 37 38 39 40 41 42 43 44 45 46 47 48 49
000
ASUS45 KPSR 250810
RWRAZ

ARIZONA HOURLY REGIONAL WEATHER ROUNDUP
NATIONAL WEATHER SERVICE PHOENIX AZ
100 AM MST SUN JUN 25 2017

NOTE: FAIR INDICATES FEW OR NO CLOUDS BELOW 12,000 FEET WITH NO
SIGNIFICANT WEATHER AND/OR OBSTRUCTIONS TO VISIBILITY.

AZZ001>003-036-250900-
NORTHWEST ARIZONA

CITY           SKY/WX    TMP DP  RH WIND       PRES   REMARKS
BULLHEAD CITY  MOCLDY   104  28   7 CALM      29.65S
KINGMAN        PTCLDY    81  27  14 SE9       29.93S
$$

AZZ004>008-015-016-018-250900-
NORTH CENTRAL ARIZONA

CITY           SKY/WX    TMP DP  RH WIND       PRES   REMARKS
GRAND CANYON   MOCLDY    59  30  33 NE3       30.25F
PRESCOTT       CLOUDY    79  35  20 S9        30.08F
FLAGSTAFF      PTCLDY    63  30  28 SW3       30.26F
PAYSON         CLOUDY    84  36  17 CALM      30.15S
PAGE           CLEAR     80  32  17 CALM      30.04R
$$

AZZ009>014-017-250900-
NORTHEAST ARIZONA

CITY           SKY/WX    TMP DP  RH WIND       PRES   REMARKS
WINSLOW        MOCLDY    83  32  16 CALM      30.08R
SAINT JOHNS    PTCLDY    73  38  27 E6        30.16R
WINDOW ROCK    CLEAR     59  27  29 VRB3      30.27S
SHOW LOW       MOCLDY    73  34  23 S16       30.24F
$$

AZZ540-542>544-546-548-250900-
GREATER PHOENIX AREA

CITY           SKY/WX    TMP DP  RH WIND       PRES   REMARKS
PHOENIX        MOCLDY   100  43  14 E3        29.72R
BUCKEYE        CLOUDY    95  48  20 CALM      29.72R
LUKE AFB       MOCLDY    98  51  20 SW10      29.70S
DEER VALLEY    MOCLDY    97  42  15 CALM      29.74F
SCOTTSDALE     MOCLDY   100  40  12 S3        29.77S
MESA-GATEWAY   MOCLDY    91  43  18 SE8       29.78R
$$

AZZ539-553-250900-
SOUTHWEST MARICOPA COUNTY AND PINAL COUNTY

CITY           SKY/WX    TMP DP  RH WIND       PRES   REMARKS
CASA GRANDE    PTCLDY    93  42  17 E10       29.80R
GILA BEND      FAIR      96  41  14 S6        29.70S
$$

AZZ503-504-507>509-250900-
SOUTHEAST ARIZONA

CITY           SKY/WX    TMP DP  RH WIND       PRES   REMARKS
TUCSON         PTCLDY    91  53  27 SE20      29.96R
DAVIS-MONTHAN  CLOUDY    89  53  28 SE18      29.95R
NOGALES        PTCLDY    83  53  35 E7        30.09R
SIERRA VISTA   CLEAR     76  54  46 SE20G28   30.17R
DOUGLAS        MOCLDY    74  55  51 SE10      30.15R
SAFFORD        MOCLDY    82  54  37 E14       30.03F
$$

AZZ532-250900-
SOUTHWEST ARIZONA

CITY           SKY/WX    TMP DP  RH WIND       PRES   REMARKS
YUMA           MOCLDY    91  52  26 S7        29.67S
$$

CAZ041-043-047-048-061-525>527-560>570-250900-
SOUTHERN CALIFORNIA

CITY           SKY/WX    TMP DP  RH WIND       PRES   REMARKS
DOWNTOWN L.A.  CLEAR     66  60  81 CALM      29.86S
L.A. AIRPORT   CLEAR     64  61  90 W5        29.86F
SAN DIEGO      CLOUDY    65  62  90 NW6       29.89S
BURBANK        CLEAR     69  58  67 E5        29.86F
ONTARIO        CLEAR     71  59  65 SW5       29.87S
RIVERSIDE      CLEAR     72  61  68 W6        29.87S
PALM SPRINGS   CLEAR     94  53  25 SE3       29.70S
EL CENTRO NAS  CLEAR     93  43  17 W12       29.65F
IMPERIAL       CLEAR     89  53  29 W7        29.63F
BLYTHE         CLEAR     96  54  24 SW3       29.67S
NEEDLES        PTCLDY   109  30   6 NW16      29.67S HX 101
$$

NVZ020-UTZ003-250900-
SOUTHERN NEVADA-UTAH

CITY           SKY/WX    TMP DP  RH WIND       PRES   REMARKS
LAS VEGAS      PTCLDY    98  29   8 S8        29.79F
SALT LAKE CITY CLEAR     68  37  32 SW5       30.15F
$$

NMZ009-TXZ055-250900-
NEW MEXICO-WEST TEXAS

CITY           SKY/WX    TMP DP  RH WIND       PRES   REMARKS
ALBUQUERQUE    CLEAR     70  55  59 E21G30    30.25S
EL PASO        CLOUDY    75  59  57 E9        30.18F
$$


........................KEY........................
SKY/WX - SKY CONDITION/WEATHER
TMP    - TEMPERATURE IN FAHRENHEIT
DP     - DEW POINT IN FAHRENHEIT
RH     - RELATIVE HUMIDITY IN PERCENT
WIND   - DIRECTION AND SPEED IN MILES PER HOUR (MPH)
VRB    - VARIABLE WIND DIRECTION
PRES   - MEAN SEA LEVEL PRESSURE IN INCHES OF MERCURY
         F - FALLING PRESSURE   R - RISING PRESSURE
         S - STEADY PRESSURE
VSB    - VISIBILITY IN MILES
HX     - HEAT INDEX IN FAHRENHEIT
WCI    - WIND CHILL INDEX IN FAHRENHEIT
TC     - TEMPERATURE IN CELSIUS WHICH IS ALSO KNOWN AS
         TEMPERATURE IN CENTIGRADE
AFB    - AIR FORCE BASE
         LUKE AFB IS LUKE AIR FORCE BASE
         DAVIS-MONTHAN IS DAVIS-MONTHAN AIR FORCE BASE
NAS    - NAVAL AIR STATION
         EL CENTRO NAS IS EL CENTRO NAVAL AIR STATION
N/A    - NOT AVAILABLE





USA.gov is the U.S. government's official web portal to all federal, state and local government web resources and services.